2022�N�x�@��C������Ԃɂ�鑪�茋��,,,,,,,,,,,,,,,
,,,,,,,,,,,,,,,
�P�@����n�_,,,,,,,,,,,,,,,
���J�s�z�n�i���J�s�z�n���r�c�V�O�|�P),,,,,,,,,,,,,,,
,,,,,,,,,,,,,,,
�Q�@���Ԓl�i�m��l�j��2022�N6��7���`2022�N6��29��,,,,,,,,,,,,,,,
,,,,,,,,,,,,,,,
,�N,��,��,��,SO2,SPM,Ox,CO,NO,NO2,PM2.5,���x,���x,����,����
,,,,,ppm,mg/m3,ppm,ppm,ppm,ppm,��g/m3,��,%,�ő�,m/s
H04,2022,6,7,1,***,0.006,0.042,***,***,***,2,19.4,92.7,WSW,1
H04,2022,6,7,2,0.001,0.006,0.035,0.2,0,0.006,1,19.5,84.6,WNW,1.1
H04,2022,6,7,3,0.001,0.002,0.038,0.3,0,0.007,0,19.7,76.3,WNW,1.9
H04,2022,6,7,4,0.001,0.002,0.042,0.2,0,0.003,0,19.5,76,WNW,1.3
H04,2022,6,7,5,0.001,0.002,0.039,0.1,0,0.005,1,19.5,71.2,WNW,2.2
H04,2022,6,7,6,0.001,0.002,0.037,0.1,0,0.005,2,19.7,71.7,WNW,2.8
H04,2022,6,7,7,0.001,0.002,0.037,0.1,0.001,0.004,2,21,62.7,NW,2.1
H04,2022,6,7,8,0.001,0.003,0.038,0.1,0.001,0.003,2,22.2,59.5,WNW,3.4
H04,2022,6,7,9,0.001,0.003,0.04,0.1,0.002,0.002,-2,23.3,54.6,WNW,3.1
H04,2022,6,7,10,0,0,0.038,0.1,0.001,0.003,1,24.6,50.5,NW,3.2
H04,2022,6,7,11,0.001,0.004,0.037,0.1,0.001,0.003,1,25.3,49.4,WNW,3.2
H04,2022,6,7,12,0.001,0.004,0.039,0.1,0.001,0.002,3,25.7,47.7,WNW,3.2
H04,2022,6,7,13,0.001,0.004,0.041,0.1,0.001,0.002,0,26.4,45.9,WNW,2.7
H04,2022,6,7,14,0.001,0.004,0.042,0.1,0.001,0.003,-1,26.2,44.8,WNW,3.4
H04,2022,6,7,15,0.001,0.005,0.042,0.1,0.001,0.003,3,26.2,45.9,WNW,3.4
H04,2022,6,7,16,0.001,0.001,0.041,0.1,0.001,0.003,4,25.7,45.9,NW,3.1
H04,2022,6,7,17,0.001,0.001,0.041,0.1,0.001,0.003,2,24.5,46.1,WNW,3.5
H04,2022,6,7,18,0.001,0.003,0.04,0.1,0,0.002,2,22.9,51.2,WNW,3.2
H04,2022,6,7,19,0,0.004,0.038,0.1,0.001,0.003,4,21.5,57.3,WNW,3
H04,2022,6,7,20,0,0.003,0.036,0.1,0.001,0.004,1,20.6,59.9,NW,1.8
H04,2022,6,7,21,0.001,0.003,0.037,0.1,0,0.004,1,19.8,63.7,NW,1.5
H04,2022,6,7,22,0.001,0.005,0.034,0.2,0,0.004,2,19.1,66.6,NW,1.6
H04,2022,6,7,23,0.001,0.004,0.034,0.1,0,0.005,2,18.9,67.9,NW,0.8
H04,2022,6,7,24,0.001,0.002,0.033,0.1,0,0.005,2,18.6,69.1,NW,0.6
H04,2022,6,8,1,0.001,0.001,0.031,0.1,0,0.007,3,18,71.2,NNW,0.3
H04,2022,6,8,2,0,0.004,0.023,0.1,0.002,0.013,5,17.7,72.2,NW,0.3
H04,2022,6,8,3,0.001,0.004,0.013,0.2,0.004,0.02,5,17.1,80,CALM,0.1
H04,2022,6,8,4,0.001,0.006,0.004,0.2,0.011,0.024,5,16.2,81.7,CALM,0
H04,2022,6,8,5,0.001,0.005,0.003,0.2,0.023,0.023,3,16.7,81,CALM,0.1
H04,2022,6,8,6,0.001,0.009,0.004,0.2,0.031,0.018,3,17.1,77.7,CALM,0.2
H04,2022,6,8,7,0.001,0.009,0.009,0.3,0.022,0.015,4,18.7,69.5,E,0.4
H04,2022,6,8,8,0.001,0.01,0.019,0.2,0.011,0.012,0,21.4,56.2,NW,0.7
H04,2022,6,8,9,0.001,0.002,0.029,0.2,0.005,0.009,5,23.1,51.2,N,1.3
H04,2022,6,8,10,0.001,0.008,0.031,0.4,0.007,0.011,4,24.6,47.3,N,1
H04,2022,6,8,11,0.001,0.005,0.037,0.4,0.004,0.008,5,26,43.7,NW,1
H04,2022,6,8,12,0.001,0.008,0.045,0.2,0.002,0.006,3,26,44,WNW,1.5
H04,2022,6,8,13,0.001,0.005,0.049,0.2,0.002,0.005,2,27.4,38.8,W,1.8
H04,2022,6,8,14,0.002,0.006,0.048,0.3,0.002,0.007,2,27.9,39.4,W,1.2
H04,2022,6,8,15,0.002,0.007,0.049,0.4,0.005,0.008,6,28,37.8,WSW,2.5
H04,2022,6,8,16,0.001,0.002,0.052,0.3,0.001,0.004,2,28,34.4,W,1.9
H04,2022,6,8,17,0.001,0.002,0.048,0.2,0.001,0.006,4,28.4,34.4,WSW,1.3
H04,2022,6,8,18,0.002,0.004,0.046,0.3,0.001,0.006,6,26.1,47.9,SW,1.9
H04,2022,6,8,19,0.001,0.006,0.048,0.2,0,0.007,6,24.7,54.9,SW,2.1
H04,2022,6,8,20,0.002,0.009,0.043,0.2,0,0.008,5,23.6,63,SW,1.5
H04,2022,6,8,21,0.002,0.007,0.041,0.2,0,0.007,5,23.3,64.3,SW,0.8
H04,2022,6,8,22,0.002,0.007,0.037,0.2,0,0.009,8,22.2,72.8,SSE,0.8
H04,2022,6,8,23,0.001,0.006,0.034,0.2,0.001,0.013,3,21.9,71,SSE,0.6
H04,2022,6,8,24,0.001,0.01,0.027,0.2,0.002,0.018,4,21.8,71.7,ESE,0.5
H04,2022,6,9,1,0.001,0.007,0.023,0.2,0.002,0.02,5,20.7,75.2,CALM,0.1
H04,2022,6,9,2,0.001,0.009,0.016,0.2,0.003,0.019,7,19.7,77.5,CALM,0.1
H04,2022,6,9,3,0.001,0.007,0.01,0.2,0.004,0.023,4,19.5,79,CALM,0
H04,2022,6,9,4,0.001,0.012,0.007,0.2,0.008,0.025,7,19.1,79,CALM,0.2
H04,2022,6,9,5,0.001,0.009,0.004,0.2,0.022,0.029,8,19.1,80.6,CALM,0.1
H04,2022,6,9,6,0.001,0.009,0.005,0.2,0.034,0.027,8,19.8,76.6,NNE,0.4
H04,2022,6,9,7,0.001,0.011,0.012,0.2,0.024,0.023,9,21.2,68.4,NNW,0.4
H04,2022,6,9,8,0.001,0.01,0.027,0.2,0.008,0.017,6,22.7,64.4,NW,0.7
H04,2022,6,9,9,0.001,0.01,0.042,0.2,0.002,0.008,6,25.2,56.4,SW,1.1
H04,2022,6,9,10,0.001,0.01,0.049,0.2,0.001,0.006,7,25.9,52.6,WSW,1.1
H04,2022,6,9,11,0.001,0.016,0.056,0.2,0.001,0.005,10,27,52.7,SW,1.5
H04,2022,6,9,12,0.001,0.015,0.061,0.2,0,0.004,10,27.3,48.8,SW,1.8
H04,2022,6,9,13,0.001,0.013,0.062,0.2,0,0.003,8,28.2,47.6,SW,2
H04,2022,6,9,14,0.001,0.014,0.062,0.2,0,0.003,10,28.4,45.7,S,1.7
H04,2022,6,9,15,0.001,0.012,0.06,0.2,0,0.003,6,27.6,50.8,S,2.1
H04,2022,6,9,16,0.001,0.009,0.054,0.2,0,0.002,8,28,49,SSW,2.6
H04,2022,6,9,17,0.001,0.008,0.051,0.2,0,0.002,7,26,60.6,SSW,2.1
H04,2022,6,9,18,0.001,0.008,0.05,0.1,0,0.002,6,25.8,60.7,S,1.5
H04,2022,6,9,19,0.001,0.011,0.045,0.2,0,0.003,6,24.5,68.5,SSW,1.4
H04,2022,6,9,20,0.001,0.011,0.044,0.2,0.001,0.003,5,23.7,75.2,SSE,1.2
H04,2022,6,9,21,0.001,0.01,0.042,0.1,0,0.004,5,23.2,77.8,SSE,1
H04,2022,6,9,22,0.001,0.009,0.04,0.1,0,0.005,5,23,81,SSE,0.9
H04,2022,6,9,23,0.001,0.01,0.036,0.1,0.001,0.007,8,23.1,79.8,SE,0.7
H04,2022,6,9,24,0.001,0.011,0.027,0.2,0.002,0.016,7,22.3,80.7,S,0.3
H04,2022,6,10,1,0.001,0.011,0.03,0.2,0.001,0.014,7,22.2,81.1,ESE,0.3
H04,2022,6,10,2,0.001,0.011,0.019,0.2,0.002,0.019,8,21.8,79.9,CALM,0.2
H04,2022,6,10,3,0.001,0.013,0.013,0.2,0.006,0.023,8,22.2,78.7,SE,0.3
H04,2022,6,10,4,0.001,0.011,0.019,0.2,0.004,0.021,8,21.9,79.3,SSE,0.8
H04,2022,6,10,5,0.001,0.012,0.033,0.2,0.002,0.013,8,21.9,79,SSE,1
H04,2022,6,10,6,0.001,0.011,0.033,0.2,0.003,0.013,8,22.7,75.2,SSE,0.9
H04,2022,6,10,7,0.001,0.01,0.029,0.2,0.007,0.021,6,23,70.6,SE,1.6
H04,2022,6,10,8,0.001,0.007,0.039,0.2,0.004,0.011,5,25.2,59.7,SE,0.7
H04,2022,6,10,9,0.001,0.009,0.047,0.2,0.002,0.006,6,25.5,54.9,SSW,1.1
H04,2022,6,10,10,0.001,0.013,0.054,0.2,0.001,0.004,9,27.2,47.3,S,1.2
H04,2022,6,10,11,0.001,0.014,0.059,0.2,0.001,0.002,8,28.7,43.9,SW,1.3
H04,2022,6,10,12,0.001,0.008,0.061,0.2,0,0.002,4,28.7,44.3,SW,2.1
H04,2022,6,10,13,0.001,0.012,0.058,0.2,0,0.002,9,28.9,42.4,S,1.9
H04,2022,6,10,14,0.001,0.008,0.058,0.1,0,0.002,5,29.6,44.8,SW,2.6
H04,2022,6,10,15,0.001,0.012,0.058,0.2,0,0.002,8,29.3,44.1,SSW,1.8
H04,2022,6,10,16,0.001,0.013,0.059,0.2,0.001,0.003,6,28.6,50.7,SSW,2.2
H04,2022,6,10,17,0.001,0.011,0.058,0.2,0,0.003,8,27,55.7,SSE,2
H04,2022,6,10,18,0.001,0.011,0.052,0.2,0.001,0.003,8,26,62.7,S,1.6
H04,2022,6,10,19,0.001,0.007,0.046,0.2,0.001,0.003,7,24.9,67.9,SSE,1.4
H04,2022,6,10,20,0,0.011,0.043,0.2,0.001,0.003,8,24.5,72.3,SSE,1.1
H04,2022,6,10,21,0.001,0.01,0.042,0.2,0,0.004,7,24.2,74.6,SSE,1
H04,2022,6,10,22,0,0.009,0.042,0.2,0,0.004,7,23.8,76.6,SSE,0.8
H04,2022,6,10,23,0.001,0.01,0.04,0.1,0,0.004,6,24,76.8,SSW,0.7
H04,2022,6,10,24,0.001,0.011,0.036,0.1,0,0.006,6,23.4,79.4,SSE,0.5
H04,2022,6,11,1,0.001,0.012,0.033,0.2,0.001,0.008,6,23.6,78.5,SE,0.4
H04,2022,6,11,2,0.001,0.013,0.019,0.2,0.002,0.017,9,23.2,78.7,SE,0.4
H04,2022,6,11,3,0.001,0.012,0.019,0.2,0.002,0.016,7,23.3,78.6,SSE,0.3
H04,2022,6,11,4,0,0.014,0.016,0.2,0.002,0.017,8,22.5,77.8,ENE,0.3
H04,2022,6,11,5,0.001,0.013,0.015,0.2,0.003,0.013,8,22.5,77,CALM,0.1
H04,2022,6,11,6,0.001,0.011,0.013,0.2,0.006,0.014,8,22.9,74.7,CALM,0.2
H04,2022,6,11,7,0.001,0.013,0.012,0.2,0.011,0.018,7,23.9,70,CALM,0.2
H04,2022,6,11,8,0.001,0.012,0.025,0.3,0.005,0.013,7,25.1,67.1,SSE,0.7
H04,2022,6,11,9,0.001,0.009,0.034,0.2,0.003,0.009,7,25.4,63.8,SSE,1.2
H04,2022,6,11,10,0.001,0.007,0.04,0.2,0.002,0.006,4,25.6,62.4,SSE,1.5
H04,2022,6,11,11,0.001,0.01,0.043,0.2,0.001,0.003,6,25.8,64,S,1.5
H04,2022,6,11,12,0.001,0.009,0.045,0.2,0,0.003,6,25.6,62.9,SSE,1.3
H04,2022,6,11,13,0.001,0.008,0.045,0.2,0.001,0.004,5,26.1,60.4,SSE,1.3
H04,2022,6,11,14,0.001,0.008,0.046,0.2,0.001,0.003,3,25.3,60.4,SSE,1.1
H04,2022,6,11,15,0,0.01,0.045,0.2,0.001,0.004,5,25.3,65,SSE,1.4
H04,2022,6,11,16,0.001,0.008,0.04,0.2,0.002,0.009,4,24.9,68.3,SE,0.9
H04,2022,6,11,17,0.001,0.009,0.039,0.2,0.002,0.009,4,24.2,72.8,SE,1.1
H04,2022,6,11,18,0,0.011,0.036,0.2,0.001,0.01,7,23.6,75.4,S,0.4
H04,2022,6,11,19,0.001,0.01,0.037,0.2,0.001,0.009,7,22.5,81.9,CALM,0.2
H04,2022,6,11,20,0.001,0.01,0.032,0.3,0.001,0.01,8,21.7,91.1,N,1
H04,2022,6,11,21,0.001,0.012,0.032,0.4,0.001,0.01,7,21.6,94.2,CALM,0.2
H04,2022,6,11,22,0.001,0.014,0.029,0.3,0,0.009,8,21.1,92.2,N,1.2
H04,2022,6,11,23,0.001,0.013,0.031,0.2,0.001,0.009,9,21,90.4,NNW,0.8
H04,2022,6,11,24,0.001,0.012,0.029,0.3,0,0.009,8,21,92.1,CALM,0.2
H04,2022,6,12,1,0.001,0.016,0.028,0.2,0,0.01,12,20.6,94,CALM,0.2
H04,2022,6,12,2,0.001,0.016,0.025,0.2,0,0.011,11,20.4,94.8,CALM,0.1
H04,2022,6,12,3,0.001,0.011,0.024,0.2,0,0.009,10,20.4,93,CALM,0.2
H04,2022,6,12,4,0.001,0.014,0.022,0.2,0.001,0.009,9,20.4,93.7,CALM,0.2
H04,2022,6,12,5,0.001,0.013,0.019,0.2,0.001,0.01,11,20.3,93.7,CALM,0.2
H04,2022,6,12,6,0.001,0.014,0.016,0.2,0.003,0.01,11,20.4,91.5,NNW,0.4
H04,2022,6,12,7,0.001,0.016,0.02,0.2,0.003,0.008,10,21.6,81.4,NNW,0.6
H04,2022,6,12,8,0.001,0.015,0.032,0.2,0.003,0.007,9,24.2,69.7,NNW,1.6
H04,2022,6,12,9,0.001,0.016,0.04,0.2,0.002,0.006,11,26.8,56.9,NNW,1.2
H04,2022,6,12,10,0.001,0.015,0.045,0.2,0.001,0.004,9,28.3,48.4,NNW,1.2
H04,2022,6,12,11,0.001,0.013,0.051,0.2,0.001,0.003,8,29.1,47.5,NW,2
H04,2022,6,12,12,0.001,0.009,0.053,0.2,0.001,0.003,10,29.9,44.2,NW,2.2
H04,2022,6,12,13,0.001,0.012,0.052,0.2,0,0.002,10,30.8,37.1,WNW,2.3
H04,2022,6,12,14,0.001,0.006,0.051,0.2,0,0.002,6,31.2,36.1,WNW,2.6
H04,2022,6,12,15,0.001,0.008,0.05,0.2,0.001,0.002,4,31.3,33.7,NW,2.5
H04,2022,6,12,16,0.001,0.013,0.048,0.2,0.001,0.002,8,30.5,33.9,NW,2.1
H04,2022,6,12,17,0.001,0.008,0.047,0.2,0,0.003,7,29.1,36.8,NW,3
H04,2022,6,12,18,0.001,0.01,0.045,0.2,0.001,0.002,8,26.9,41.9,NW,2.2
H04,2022,6,12,19,0.001,0.008,0.042,0.2,0,0.003,7,24.8,49.3,NW,2.4
H04,2022,6,12,20,0.001,0.01,0.041,0.2,0,0.003,5,23.5,52.9,NW,1.5
H04,2022,6,12,21,0.001,0.009,0.04,0.1,0,0.003,6,22.5,55.4,NNW,1.6
H04,2022,6,12,22,0.001,0.011,0.038,0.1,0.001,0.004,5,22.1,55.1,NNW,1.3
H04,2022,6,12,23,0.001,0.011,0.038,0.2,0,0.003,6,21.4,58.3,NW,1.5
H04,2022,6,12,24,0,0.01,0.037,0.1,0,0.004,7,20.9,60,NW,0.7
H04,2022,6,13,1,0.001,0.007,0.037,0.1,0,0.004,7,20.1,60.3,NNW,0.4
H04,2022,6,13,2,0.001,0.01,0.03,0.1,0,0.009,6,20.3,61.6,NNW,0.4
H04,2022,6,13,3,0,0.009,0.029,0.1,0.001,0.011,7,20,63.9,N,0.9
H04,2022,6,13,4,0.001,0.009,0.025,0.1,0.002,0.014,5,19.8,65.1,N,0.6
H04,2022,6,13,5,0.001,0.008,0.021,0.1,0.005,0.018,6,19.2,65,N,0.5
H04,2022,6,13,6,0.001,0.01,0.023,0.2,0.002,0.013,7,19.7,61.9,NW,0.8
H04,2022,6,13,7,0.001,0.012,0.02,0.2,0.003,0.016,8,20.7,56.6,NW,0.5
H04,2022,6,13,8,0.001,0.011,0.018,0.2,0.011,0.017,7,21.9,52.3,NNE,0.6
H04,2022,6,13,9,0.001,0.007,0.021,0.2,0.013,0.015,5,24.3,45.7,S,0.4
H04,2022,6,13,10,0.001,0.008,0.026,0.2,0.011,0.014,5,26.1,37.6,SE,0.5
H04,2022,6,13,11,0.001,0.013,0.041,0.2,0.003,0.007,7,27.4,37.6,SSE,1.2
H04,2022,6,13,12,0.001,0.016,0.052,0.2,0.001,0.005,11,28.5,45.2,S,1.7
H04,2022,6,13,13,0.001,0.017,0.061,0.2,0.001,0.005,11,29.1,44.1,SSW,2.1
H04,2022,6,13,14,0.001,0.016,0.063,0.2,0,0.004,10,28.1,49.2,SSE,2.1
H04,2022,6,13,15,0.001,0.014,0.063,0.2,0,0.004,9,27.6,49.9,S,1.5
H04,2022,6,13,16,0.001,0.015,0.063,0.2,0,0.004,9,26.3,59.6,S,2
H04,2022,6,13,17,0.001,0.015,0.059,0.2,0,0.004,11,25.7,62.9,S,1.8
H04,2022,6,13,18,0.001,0.014,0.055,0.2,0,0.005,11,25.3,64.3,SSE,1.4
H04,2022,6,13,19,0.001,0.016,0.05,0.2,0.001,0.009,10,24.8,66,SE,1.8
H04,2022,6,13,20,0.001,0.016,0.048,0.2,0.001,0.009,9,24.5,66,SE,2.3
H04,2022,6,13,21,0.001,0.013,0.045,0.2,0.001,0.011,9,21.9,84.8,SE,2.4
H04,2022,6,13,22,0.001,0.013,0.043,0.2,0.001,0.008,8,22.5,77.1,SSE,0.8
H04,2022,6,13,23,0.001,0.011,0.044,0.2,0,0.006,8,22.8,71.5,SSE,1
H04,2022,6,13,24,0.001,0.013,0.045,0.2,0,0.005,8,21.6,80.1,S,1.3
H04,2022,6,14,1,***,0.01,0.043,***,***,***,8,22.2,75.8,SE,1.2
H04,2022,6,14,2,0.001,0.009,0.041,0.2,0.001,0.01,5,22.8,66.8,SE,1.7
H04,2022,6,14,3,0.001,0.007,0.04,0.2,0.001,0.007,3,21.8,72.5,SE,2.1
H04,2022,6,14,4,0.001,0.003,0.029,0.1,0.003,0.012,2,21.3,77.9,SE,1.2
H04,2022,6,14,5,0.001,0.003,0.024,0.1,0.004,0.013,0,21.8,69.1,SE,1.8
H04,2022,6,14,6,0.001,0.003,0.02,0.1,0.01,0.02,3,21.9,65.3,SE,1.7
H04,2022,6,14,7,0.001,0.006,0.025,0.2,0.004,0.012,6,20.4,76.2,SSE,1.3
H04,2022,6,14,8,0.001,0.008,0.026,0.2,0.002,0.01,7,19.7,84.2,SE,1.2
H04,2022,6,14,9,0.001,0.006,0.024,0.2,0.006,0.014,5,19.2,82.4,SSE,1.6
H04,2022,6,14,10,0,0.006,0.021,0.2,0.012,0.021,5,19.6,80.5,SE,1.5
H04,2022,6,14,11,0.001,0.007,0.032,0.2,0.002,0.008,5,19.8,78.3,SE,1.1
H04,2022,6,14,12,0.001,0.009,0.031,0.2,0.003,0.009,4,20.1,82.5,S,1.2
H04,2022,6,14,13,0.001,0.008,0.033,0.2,0.003,0.009,7,20,84.7,SW,0.8
H04,2022,6,14,14,0.001,0.009,0.036,0.2,0.001,0.006,9,20.4,86.3,SW,0.6
H04,2022,6,14,15,0,0.008,0.032,0.2,0.002,0.01,3,20.3,90.2,NW,0.4
H04,2022,6,14,16,0.001,0.005,0.033,0.2,0.002,0.009,4,20.3,89.8,CALM,0.1
H04,2022,6,14,17,0.001,0.009,0.018,0.2,0.011,0.027,6,20.3,90.9,E,0.3
H04,2022,6,14,18,0.001,0.008,0.021,0.2,0.006,0.022,6,20.3,83.8,SE,0.7
H04,2022,6,14,19,0,0.003,0.024,0.3,0.004,0.018,4,18.9,85.2,ESE,0.4
H04,2022,6,14,20,0.001,0.002,0.03,0.2,0.002,0.013,3,18.2,91.3,SSE,0.4
H04,2022,6,14,21,0.001,0.004,0.031,0.2,0.001,0.01,2,17.9,94,CALM,0.1
H04,2022,6,14,22,0.002,0.004,0.026,0.2,0.001,0.012,3,18.2,95.6,W,0.4
H04,2022,6,14,23,0.002,0.004,0.028,0.2,0,0.007,5,17.7,95.4,WNW,0.6
H04,2022,6,14,24,0.006,0.005,0.028,0.2,0,0.007,3,17.4,95.9,WNW,0.6
H04,2022,6,15,1,0.001,0.004,0.028,0.2,0,0.006,6,17.7,97.2,W,0.7
H04,2022,6,15,2,0.003,0.003,0.029,0.2,0,0.005,6,17.7,97.1,CALM,0.2
H04,2022,6,15,3,0.001,0.003,0.028,0.2,0,0.007,2,17.7,97.3,CALM,0.2
H04,2022,6,15,4,0.001,0.002,0.014,0.2,0.007,0.025,4,17.9,96.8,NNW,0.7
H04,2022,6,15,5,0.001,0.006,0.019,0.2,0.005,0.019,5,18.2,96,NNW,0.8
H04,2022,6,15,6,0.001,0.008,0.012,0.2,0.012,0.027,6,18.3,93.8,NNW,0.5
H04,2022,6,15,7,0.001,0.006,0.016,0.2,0.007,0.021,4,18.8,93.6,CALM,0.2
H04,2022,6,15,8,0.001,0.006,0.016,0.2,0.004,0.021,4,19.5,91.6,CALM,0.2
H04,2022,6,15,9,0.001,0.006,0.02,0.2,0.006,0.017,5,19.5,89.2,N,0.6
H04,2022,6,15,10,0.001,0.009,0.017,0.2,0.019,0.025,6,20.5,86,N,0.6
H04,2022,6,15,11,0.001,0.008,0.027,0.2,0.009,0.016,5,20.9,85,NW,1.7
H04,2022,6,15,12,0.001,0.01,0.029,0.2,0.003,0.016,10,20.3,90,WNW,1.5
H04,2022,6,15,13,0.001,0.006,0.039,0.2,0.001,0.009,5,20.5,85.2,NW,0.7
H04,2022,6,15,14,0.001,0.009,0.031,0.2,0.006,0.019,10,21.5,83.5,NNW,0.6
H04,2022,6,15,15,0.002,0.015,0.029,0.4,0.004,0.022,11,21.3,86.4,NW,1
H04,2022,6,15,16,0.001,0.012,0.035,0.4,0.002,0.018,10,20.5,93,WNW,0.9
H04,2022,6,15,17,0.001,0.011,0.03,0.2,0.002,0.022,9,20.3,94.5,NNW,0.4
H04,2022,6,15,18,0.001,0.01,0.029,0.3,0.003,0.024,9,20.5,94.7,N,0.6
H04,2022,6,15,19,0.001,0.008,0.023,0.3,0.006,0.027,3,20.3,95,NNW,0.8
H04,2022,6,15,20,0.001,0.007,0.027,0.3,0.001,0.018,3,20.4,94.7,WNW,0.6
H04,2022,6,15,21,0.001,0.01,0.027,0.3,0,0.016,6,20.3,95.5,NW,0.4
H04,2022,6,15,22,0.001,0.012,0.026,0.3,0,0.016,9,20.1,97.3,CALM,0
H04,2022,6,15,23,0.001,0.014,0.023,0.3,0.002,0.018,9,20.1,95.3,NNW,0.5
H04,2022,6,15,24,0,0.015,0.022,0.3,0.002,0.019,9,20.3,94.6,NNW,0.3
H04,2022,6,16,1,0.001,0.012,0.023,0.3,0.001,0.015,11,20.4,93.7,N,0.5
H04,2022,6,16,2,0.001,0.013,0.021,0.3,0.001,0.017,10,20.2,94.2,N,0.4
H04,2022,6,16,3,0.001,0.014,0.015,0.3,0.002,0.019,10,19.7,95.2,CALM,0
H04,2022,6,16,4,0.001,0.017,0.007,0.3,0.012,0.027,11,19.5,96.4,CALM,0
H04,2022,6,16,5,0.001,0.019,0.006,0.3,0.014,0.025,13,19.5,97.2,CALM,0
H04,2022,6,16,6,0.001,0.018,0.007,0.3,0.013,0.022,13,20.1,94.7,NNW,0.4
H04,2022,6,16,7,0.001,0.019,0.013,0.3,0.016,0.021,13,21,88.1,N,0.8
H04,2022,6,16,8,0.001,0.017,0.016,0.3,0.013,0.02,11,22,82.3,W,0.3
H04,2022,6,16,9,0.001,0.016,0.026,0.3,0.003,0.014,8,22.5,78.1,WNW,0.3
H04,2022,6,16,10,0.002,0.011,0.035,0.3,0.003,0.012,6,24.1,69.4,W,0.7
H04,2022,6,16,11,0.002,0.019,0.05,0.3,0.003,0.013,9,25.6,66.1,SW,0.6
H04,2022,6,16,12,0.002,0.026,0.065,0.3,0.002,0.013,17,26,66.1,W,1.1
H04,2022,6,16,13,0.002,0.04,0.057,0.3,0.002,0.015,24,26.2,64.7,SSW,1.6
H04,2022,6,16,14,0.003,0.022,0.061,0.4,0.002,0.012,16,26.4,61.3,S,1.1
H04,2022,6,16,15,0.002,0.014,0.055,0.3,0.003,0.008,10,26.4,67.9,SSW,1.2
H04,2022,6,16,16,0.001,0.009,0.052,0.2,0.001,0.005,7,25.7,70.1,S,1
H04,2022,6,16,17,0,0.013,0.051,0.2,0.001,0.005,7,25.2,76.1,SSW,1.2
H04,2022,6,16,18,0.001,0.012,0.048,0.2,0.001,0.005,8,24.9,78.7,SSW,1.4
H04,2022,6,16,19,0.001,0.02,0.049,0.2,0.001,0.006,9,24.1,83.2,S,0.9
H04,2022,6,16,20,0.001,0.026,0.056,0.2,0.001,0.005,12,23.7,84.1,SSE,0.9
H04,2022,6,16,21,0.001,0.028,0.06,0.2,0,0.007,12,23.6,83.8,SSE,1.2
H04,2022,6,16,22,0.001,0.029,0.062,0.2,0,0.005,13,23.4,84.5,SSE,0.8
H04,2022,6,16,23,0.001,0.025,0.055,0.2,0,0.01,13,23.3,85.3,SSE,0.8
H04,2022,6,16,24,0.001,0.026,0.045,0.2,0.001,0.016,14,22.3,88.7,CALM,0.2
H04,2022,6,17,1,0.001,0.027,0.039,0.2,0.001,0.017,17,22.3,89.2,CALM,0
H04,2022,6,17,2,0.001,0.028,0.038,0.2,0.001,0.013,14,22.1,89.2,SSE,0.3
H04,2022,6,17,3,0.001,0.027,0.025,0.2,0.002,0.025,13,21.6,91.3,CALM,0
H04,2022,6,17,4,0.001,0.027,0.018,0.2,0.002,0.025,13,21.5,93.6,CALM,0.1
H04,2022,6,17,5,0.001,0.027,0.009,0.2,0.008,0.027,18,21.1,94.1,CALM,0
H04,2022,6,17,6,0.001,0.029,0.008,0.2,0.015,0.024,17,22.3,87.9,CALM,0.2
H04,2022,6,17,7,0.001,0.032,0.013,0.3,0.014,0.026,16,22.9,83.4,CALM,0.2
H04,2022,6,17,8,0.002,0.034,0.029,0.3,0.004,0.018,16,24,80.2,WSW,0.6
H04,2022,6,17,9,0.002,0.035,0.037,0.3,0.004,0.018,17,25.4,73,SW,0.6
H04,2022,6,17,10,0.002,0.039,0.046,0.3,0.005,0.019,18,26.3,62.7,S,0.6
H04,2022,6,17,11,0.004,0.046,0.053,0.4,0.005,0.023,21,27.9,61.3,W,1.1
H04,2022,6,17,12,0.005,0.038,0.054,0.9,0.005,0.022,24,28.7,54.2,WSW,1.8
H04,2022,6,17,13,0.003,0.026,0.072,0.6,0.002,0.009,16,31.5,46.7,WNW,1
H04,2022,6,17,14,0.003,0.03,0.075,0.4,0.002,0.012,18,32.1,42.1,W,1.3
H04,2022,6,17,15,0.003,0.031,0.088,0.5,0.001,0.009,19,31.7,47,WSW,1.6
H04,2022,6,17,16,0.002,0.027,0.088,0.4,0,0.005,21,31.7,42.9,W,1.4
H04,2022,6,17,17,0.002,0.032,0.075,0.3,0,0.009,21,29.4,59,SW,2.5
H04,2022,6,17,18,0.001,0.024,0.058,0.3,0,0.007,17,28.3,59.8,SSW,1.9
H04,2022,6,17,19,0.001,0.019,0.051,0.2,0,0.007,12,27.4,61,SSW,1.3
H04,2022,6,17,20,0.001,0.017,0.045,0.2,0.001,0.009,12,26.6,65.6,SSE,0.7
H04,2022,6,17,21,0.001,0.02,0.043,0.2,0,0.011,14,26.3,67.4,SSE,0.6
H04,2022,6,17,22,0.001,0.025,0.033,0.2,0.001,0.021,16,25.5,70.8,CALM,0.2
H04,2022,6,17,23,0.001,0.032,0.028,0.3,0.002,0.029,20,24.5,75.6,CALM,0.2
H04,2022,6,17,24,0.001,0.033,0.021,0.4,0.002,0.035,22,24.2,76.4,SSE,0.4
H04,2022,6,18,1,0.001,0.028,0.024,0.4,0.001,0.019,17,24.1,79.1,SSE,0.3
H04,2022,6,18,2,0.001,0.026,0.021,0.3,0.002,0.021,20,24,82.2,SE,0.5
H04,2022,6,18,3,0.001,0.029,0.019,0.3,0.002,0.022,20,23.3,83.3,CALM,0
H04,2022,6,18,4,0.001,0.03,0.024,0.3,0.001,0.014,17,23.6,82.2,SSE,0.3
H04,2022,6,18,5,0.001,0.03,0.022,0.2,0.001,0.015,19,23.6,82,CALM,0.1
H04,2022,6,18,6,0.001,0.031,0.015,0.2,0.007,0.025,20,23.6,80.6,CALM,0.2
H04,2022,6,18,7,0.001,0.031,0.015,0.3,0.01,0.025,20,24,78.7,SE,0.3
H04,2022,6,18,8,0.001,0.029,0.019,0.3,0.008,0.021,19,24.3,74.9,CALM,0.2
H04,2022,6,18,9,0.001,0.032,0.02,0.3,0.008,0.022,21,24.5,75.4,CALM,0.2
H04,2022,6,18,10,0.001,0.013,0.02,0.3,0.002,0.009,9,25.4,83.6,SSE,1
H04,2022,6,18,11,0,0.008,0.02,0.2,0.002,0.006,6,25.4,83.1,SSE,1.3
H04,2022,6,18,12,0.001,0.006,0.02,0.2,0.003,0.008,4,25.6,80,SSE,1
H04,2022,6,18,13,0.001,0.008,0.024,0.1,0.001,0.004,2,24.8,90.8,SSE,1.1
H04,2022,6,18,14,0.001,0.006,0.018,0.1,0.002,0.006,4,24.6,94.7,SSE,0.9
H04,2022,6,18,15,0.001,0.002,0.018,0.2,0.002,0.006,3,23.6,96,S,0.4
H04,2022,6,18,16,0.001,0.003,0.017,0.2,0.002,0.007,2,23.9,97,CALM,0
H04,2022,6,18,17,0.001,0.002,0.018,0.1,0.001,0.005,1,23.8,97.5,CALM,0.1
H04,2022,6,18,18,0.001,0.004,0.02,0.1,0.018,0.009,2,22.8,97.9,SSW,1.6
H04,2022,6,18,19,0.001,0.001,0.041,0.1,0.007,0.003,2,22.1,97.4,WSW,1.2
H04,2022,6,18,20,0.001,0.002,0.047,0.1,0,0.005,2,21.9,95.3,W,0.7
H04,2022,6,18,21,0.001,0.004,0.041,0.2,0,0.005,3,21.8,96.8,NW,0.4
H04,2022,6,18,22,0.001,0.008,0.036,0.2,0,0.008,5,22.1,97.3,CALM,0
H04,2022,6,18,23,0.001,0.011,0.023,0.2,0.001,0.017,5,22.3,96.9,CALM,0.2
H04,2022,6,18,24,0.001,0.011,0.023,0.3,0.001,0.014,5,22.3,97.3,CALM,0.1
H04,2022,6,19,1,0.001,0.011,0.022,0.3,0,0.01,5,21.9,97.8,CALM,0
H04,2022,6,19,2,0.001,0.012,0.013,0.2,0.001,0.016,6,21.3,98.4,CALM,0
H04,2022,6,19,3,0.001,0.01,0.01,0.3,0.003,0.014,6,21,98.9,CALM,0
H04,2022,6,19,4,0.001,0.008,0.011,0.2,0,0.01,6,20.7,99,CALM,0
H04,2022,6,19,5,0.001,0.009,0.01,0.2,0.001,0.009,5,20.7,99,CALM,0
H04,2022,6,19,6,0.001,0.011,0.009,0.2,0.004,0.012,7,21.5,98.6,CALM,0
H04,2022,6,19,7,0.001,0.01,0.012,0.3,0.005,0.012,5,22.1,92.1,CALM,0.1
H04,2022,6,19,8,0.001,0.011,0.019,0.3,0.005,0.011,6,23.9,85.6,NNW,0.7
H04,2022,6,19,9,0.001,0.015,0.035,0.3,0.002,0.008,6,25.6,75.4,WSW,0.7
H04,2022,6,19,10,0.002,0.019,0.044,0.2,0.001,0.007,9,28,65.8,W,1.4
H04,2022,6,19,11,0.005,0.021,0.049,0.2,0.003,0.012,12,28.9,58.9,WSW,1.2
H04,2022,6,19,12,0.006,0.019,0.053,0.6,0.003,0.013,11,30.9,55.6,W,1.2
H04,2022,6,19,13,0.003,0.016,0.069,0.6,0.001,0.004,9,31.8,52.3,WSW,1.5
H04,2022,6,19,14,0.002,0.021,0.075,0.2,0,0.003,13,32.5,48.9,W,1.4
H04,2022,6,19,15,0.001,0.021,0.064,0.2,0,0.002,13,33,42,WSW,1.7
H04,2022,6,19,16,0.001,0.017,0.06,0.2,0,0.004,13,31.4,54.4,SSW,1.5
H04,2022,6,19,17,0.001,0.01,0.047,0.2,0,0.003,7,29.4,58.1,S,1.5
H04,2022,6,19,18,0.001,0.01,0.043,0.1,0,0.004,6,27.9,64.9,S,1.3
H04,2022,6,19,19,0.001,0.006,0.032,0.1,0,0.008,5,26.9,71.4,SSE,1
H04,2022,6,19,20,0.001,0.005,0.03,0.1,0,0.009,4,26.1,70.4,SSE,0.8
H04,2022,6,19,21,0.001,0.008,0.032,0.1,0,0.007,3,26.2,70.6,SSE,0.7
H04,2022,6,19,22,0.001,0.009,0.031,0.1,0.001,0.009,4,25.7,73.5,CALM,0.2
H04,2022,6,19,23,0.001,0.01,0.022,0.2,0.001,0.013,6,25.4,75.7,CALM,0.1
H04,2022,6,19,24,0.001,0.013,0.022,0.2,0.001,0.012,7,24.9,77.7,CALM,0.2
H04,2022,6,20,1,0.001,0.01,0.018,0.2,0.005,0.013,8,23.9,80.9,CALM,0
H04,2022,6,20,2,0.001,0.011,0.015,0.2,0.001,0.013,7,23.6,82.9,CALM,0
H04,2022,6,20,3,0.001,0.014,0.011,0.2,0.001,0.016,8,23.2,86.6,CALM,0
H04,2022,6,20,4,0.001,0.016,0.011,0.2,0.003,0.012,8,23.6,87.5,CALM,0.1
H04,2022,6,20,5,0.001,0.018,0.005,0.2,0.01,0.018,10,22.9,88.7,CALM,0
H04,2022,6,20,6,0.001,0.016,0.007,0.2,0.009,0.015,9,23.6,86.7,CALM,0.1
H04,2022,6,20,7,0.001,0.018,0.008,0.2,0.024,0.018,9,25.1,77.6,SW,0.5
H04,2022,6,20,8,0.002,0.021,0.023,0.3,0.005,0.013,11,26.6,68.2,SW,0.6
H04,2022,6,20,9,0.003,0.035,0.029,0.3,0.007,0.015,16,27.9,65.7,WNW,0.7
H04,2022,6,20,10,0.004,0.033,0.035,0.4,0.008,0.018,14,29.5,57.3,W,1.1
H04,2022,6,20,11,0.003,0.025,0.043,0.4,0.004,0.014,16,30.8,50.7,SW,1.3
H04,2022,6,20,12,0.003,0.028,0.058,0.3,0.003,0.015,18,31.1,49.8,W,0.6
H04,2022,6,20,13,0.003,0.031,0.073,0.3,0.002,0.013,19,32.8,47.2,W,1
H04,2022,6,20,14,0.006,0.032,0.069,0.4,0.007,0.021,21,32.2,48.1,W,1.3
H04,2022,6,20,15,0.004,0.032,0.073,0.7,0.003,0.012,22,31.7,53.7,SW,2
H04,2022,6,20,16,0.003,0.031,0.06,0.3,0.003,0.01,20,31,56.4,SSW,2
H04,2022,6,20,17,0.002,0.031,0.053,0.2,0.001,0.007,18,30.3,57.8,S,1.4
H04,2022,6,20,18,0.001,0.029,0.048,0.2,0,0.005,19,29.9,64.6,S,0.9
H04,2022,6,20,19,0.001,0.027,0.039,0.2,0.001,0.007,17,28.3,71.2,SSE,1.1
H04,2022,6,20,20,0.001,0.022,0.034,0.2,0.001,0.008,14,27.3,72.9,SSE,1
H04,2022,6,20,21,0.001,0.019,0.033,0.2,0,0.007,13,27,74.5,SSE,0.7
H04,2022,6,20,22,0.001,0.021,0.029,0.2,0.001,0.009,12,26.8,75.8,SE,0.5
H04,2022,6,20,23,0.001,0.023,0.019,0.2,0.003,0.017,13,26.3,77.6,SSE,0.4
H04,2022,6,20,24,0.001,0.023,0.019,0.2,0.002,0.013,15,25.9,77.9,CALM,0.2
H04,2022,6,21,1,***,0.022,0.014,***,***,***,15,25.2,80.5,S,0.3
H04,2022,6,21,2,0.001,0.022,0.014,0.2,0.001,0.014,14,24.5,85.5,CALM,0
H04,2022,6,21,3,0.001,0.027,0.008,0.2,0.005,0.02,15,24.5,84.4,CALM,0.2
H04,2022,6,21,4,0.001,0.028,0.012,0.2,0.002,0.014,16,24.3,85.1,S,0.4
H04,2022,6,21,5,0.001,0.031,0.008,0.1,0.015,0.02,18,24.3,86.4,CALM,0
H04,2022,6,21,6,0.001,0.029,0.006,0.2,0.02,0.022,17,25.2,82.5,SSW,0.5